Probability
0 0 0 0 0 0 0 0 0 0 0 0 0 0 0 0 0 0 0 0 0 0 0 0 0 0 0 0 0 0 0 0 0 0 0 0 3 6 0 3 3 0 26
0 0 0 0 0 0 0 0 0 0 0 0 0 0 0 0 0 0 0 0 0 0 0 0 0 0 0 0 0 0 0 0 0 3 19 3 0 0 10 16 13 3 55
0 0 0 0 0 0 0 0 0 0 0 0 0 0 0 0 0 0 0 0 0 0 0 0 0 0 0 0 0 0 0 0 0 10 16 0 0 0 10 32 23 26 74
0 0 0 0 0 0 0 0 0 0 0 0 0 0 0 0 0 0 0 0 0 0 0 0 0 0 0 0 0 0 0 0 0 6 0 0 0 0 3 13 29 45 90
0 0 0 0 0 0 0 0 0 0 0 0 0 0 0 0 0 0 0 0 0 0 0 0 0 0 0 0 0 0 0 0 3 0 0 0 0 0 3 6 42 81 94
0 0 0 0 0 0 0 0 0 0 0 0 0 0 0 0 0 0 0 0 0 0 0 0 0 0 0 0 0 0 0 0 0 0 0 0 0 0 0 10 26 65 90
0 0 0 0 0 0 0 0 0 0 0 0 0 0 0 0 0 0 0 0 0 0 0 0 0 0 0 0 0 0 0 0 0 0 0 0 0 0 0 6 19 45 84
0 0 0 0 0 0 0 0 0 0 0 0 0 0 0 0 0 0 0 0 0 0 0 0 0 0 0 0 0 0 0 0 0 0 0 0 0 0 0 3 16 26 58
0 0 0 0 0 0 0 0 0 0 0 0 0 0 0 0 0 0 0 0 0 0 0 0 0 0 0 0 0 0 0 0 0 0 0 0 0 0 0 0 16 23 48
0 0 0 0 0 0 0 0 0 0 0 0 0 0 0 0 0 0 0 0 0 0 0 0 0 0 0 0 0 0 0 0 0 0 0 0 0 0 0 0 0 23 42
0 0 0 0 0 0 0 0 0 0 0 0 0 0 0 0 0 0 0 0 0 0 0 0 0 0 0 0 0 0 0 0 0 0 0 0 0 0 0 0 0 3 35
0 0 0 0 0 0 0 0 0 0 0 0 0 0 0 0 0 0 0 0 0 0 0 0 0 0 0 0 0 0 0 0 0 0 0 0 0 0 0 0 0 0 23
0 0 0 0 0 0 0 0 0 0 0 0 0 0 0 0 0 0 0 0 0 0 0 0 0 0 0 0 0 0 0 0 0 0 0 0 0 0 0 0 0 0 23
0 0 0 0 0 0 0 0 0 0 0 0 0 0 0 0 0 0 0 0 0 0 0 0 0 0 0 0 0 0 0 0 0 0 0 0 0 0 0 0 3 3 13
0 0 0 0 0 0 0 0 0 0 0 0 0 0 0 0 0 0 0 0 0 0 0 0 0 0 0 0 0 0 0 0 0 0 0 0 0 0 0 0 0 3 13
0 0 0 0 0 0 0 0 0 0 0 0 0 0 0 0 0 0 0 0 0 0 0 0 0 0 0 0 0 0 0 0 0 0 0 0 0 0 0 0 0 3 10
0 0 0 0 0 0 0 0 0 0 0 0 0 0 0 0 0 0 0 0 0 0 0 0 0 0 0 0 0 0 0 0 0 0 0 0 0 0 0 0 0 3 6
0 0 0 0 0 0 0 0 0 0 0 0 0 0 0 0 0 0 0 0 0 0 0 0 0 0 0 0 0 0 0 0 0 0 0 0 0 0 0 0 0 0 3
0 0 0 0 0 0 0 0 0 0 0 0 0 0 0 0 0 0 0 0 0 0 0 0 0 0 0 0 0 0 0 0 0 0 0 0 0 0 0 0 0 0 0
0 0 0 0 0 0 0 0 0 0 0 0 0 0 0 0 0 0 0 0 0 0 0 0 0 0 0 0 0 0 0 0 0 0 0 0 0 0 0 0 0 0 0
0 0 0 0 0 0 0 0 0 0 0 0 0 0 0 0 0 0 0 0 0 0 0 0 0 0 0 0 0 0 0 0 0 0 0 0 0 0 0 0 0 0 0
0 0 0 0 0 0 0 0 0 0 0 0 0 0 0 0 0 0 0 0 0 0 0 0 0 0 0 0 0 0 0 0 0 0 0 0 0 0 0 0 0 0 0
0 0 0 0 0 0 0 0 0 0 0 0 0 0 0 0 0 0 0 0 0 0 0 0 0 0 0 0 0 0 0 0 0 0 0 0 0 0 0 0 0 0 0
0 0 0 0 0 0 0 0 0 0 0 0 0 0 0 0 0 0 0 0 0 0 0 0 0 0 0 0 0 0 0 0 0 0 0 0 0 0 0 0 0 0 0
0 0 0 0 0 0 0 0 0 0 0 0 0 0 0 0 0 0 0 0 0 0 0 0 0 0 0 0 0 0 0 0 0 0 0 0 0 0 0 0 0 0 0
0 0 0 0 0 0 0 0 0 0 0 0 0 0 0 0 0 0 0 0 0 0 0 0 0 0 0 0 0 0 0 0 0 0 0 0 0 0 0 0 0 0 0
Height
5865 5864 5863 5861 5860 5859 5858 5857 5856 5855 5853 5852 5851 5850 5849 5848 5847 5847 5846 5846 5846 5847 5847 5848 5849 5850 5850 5851 5852 5853 5854 5855 5855 5856 5856 5857 5858 5859 5860 5862 5863 5864 5866
5863 5862 5861 5860 5859 5857 5856 5854 5853 5851 5849 5848 5846 5845 5843 5842 5841 5840 5839 5838 5838 5838 5838 5839 5840 5841 5842 5844 5845 5846 5847 5848 5849 5850 5851 5853 5854 5855 5856 5857 5859 5860 5862
5862 5861 5860 5858 5857 5855 5853 5851 5849 5847 5845 5843 5841 5839 5838 5836 5834 5833 5832 5831 5830 5830 5830 5830 5830 5831 5832 5834 5836 5837 5839 5841 5842 5844 5845 5847 5849 5850 5851 5853 5854 5856 5858
5861 5859 5857 5856 5854 5852 5849 5847 5845 5842 5840 5838 5836 5833 5831 5829 5827 5826 5824 5823 5822 5822 5821 5821 5821 5822 5822 5824 5825 5827 5829 5832 5834 5836 5838 5841 5842 5844 5846 5848 5849 5851 5853
5859 5857 5854 5852 5850 5847 5844 5842 5839 5836 5834 5831 5829 5826 5823 5821 5819 5818 5816 5814 5813 5813 5812 5812 5812 5812 5813 5813 5814 5816 5818 5821 5824 5827 5830 5832 5835 5837 5839 5841 5843 5846 5848
5856 5853 5851 5848 5845 5841 5838 5835 5832 5829 5826 5823 5820 5817 5814 5811 5809 5807 5805 5804 5803 5802 5801 5801 5801 5802 5802 5803 5804 5805 5807 5810 5813 5816 5819 5822 5826 5829 5832 5834 5836 5839 5842
5852 5849 5845 5842 5838 5835 5831 5827 5824 5820 5817 5813 5809 5806 5803 5799 5797 5794 5792 5791 5790 5789 5789 5788 5788 5789 5790 5791 5792 5794 5796 5798 5800 5804 5807 5811 5815 5819 5822 5825 5828 5831 5834
5847 5843 5839 5835 5831 5827 5823 5818 5814 5810 5806 5802 5797 5793 5789 5786 5782 5779 5777 5775 5774 5773 5773 5773 5773 5774 5776 5777 5779 5781 5783 5786 5788 5791 5795 5799 5803 5807 5812 5815 5819 5822 5826
5841 5837 5832 5828 5823 5818 5814 5809 5804 5799 5794 5789 5784 5779 5775 5770 5766 5762 5759 5757 5755 5754 5754 5755 5755 5757 5759 5761 5763 5766 5769 5772 5775 5778 5781 5785 5790 5795 5800 5804 5808 5812 5817
5835 5831 5826 5821 5815 5810 5804 5798 5792 5786 5780 5775 5769 5763 5758 5753 5748 5744 5740 5737 5735 5734 5733 5733 5734 5737 5739 5741 5744 5747 5752 5756 5760 5764 5767 5771 5776 5781 5787 5792 5797 5802 5806
5829 5824 5818 5812 5806 5800 5793 5786 5779 5773 5766 5759 5753 5746 5740 5734 5729 5724 5719 5716 5713 5711 5710 5710 5711 5713 5716 5720 5723 5727 5732 5737 5743 5747 5752 5756 5761 5767 5773 5778 5784 5789 5795
5822 5816 5810 5803 5797 5790 5783 5775 5768 5760 5752 5744 5736 5728 5721 5714 5708 5702 5697 5692 5689 5686 5685 5684 5685 5688 5691 5695 5699 5704 5710 5716 5722 5728 5734 5740 5745 5751 5758 5764 5770 5776 5782
5815 5808 5801 5794 5787 5779 5772 5763 5755 5745 5736 5727 5718 5709 5700 5692 5684 5677 5671 5666 5661 5658 5656 5656 5657 5659 5663 5667 5673 5678 5685 5692 5700 5707 5715 5721 5728 5735 5742 5749 5755 5762 5769
5807 5800 5793 5785 5776 5768 5759 5749 5739 5729 5718 5708 5697 5687 5677 5668 5659 5650 5643 5637 5631 5628 5626 5625 5625 5628 5631 5637 5643 5650 5657 5666 5674 5683 5692 5700 5708 5716 5724 5732 5740 5747 5754
5800 5792 5783 5774 5765 5755 5744 5732 5721 5709 5697 5685 5673 5661 5650 5640 5631 5622 5613 5606 5600 5596 5593 5592 5592 5595 5598 5603 5610 5618 5628 5636 5647 5657 5668 5677 5686 5695 5704 5713 5722 5731 5739
5791 5782 5773 5762 5751 5739 5727 5714 5700 5687 5673 5660 5647 5634 5623 5611 5602 5593 5585 5578 5571 5566 5562 5561 5561 5563 5565 5570 5577 5584 5595 5605 5617 5628 5640 5651 5662 5673 5683 5694 5704 5714 5723
5781 5771 5760 5748 5735 5721 5707 5693 5679 5664 5650 5636 5623 5610 5598 5586 5576 5567 5559 5552 5546 5541 5536 5534 5533 5533 5536 5539 5545 5552 5562 5573 5584 5597 5611 5624 5636 5648 5661 5673 5684 5695 5706
5771 5759 5746 5733 5718 5704 5688 5673 5658 5643 5629 5615 5601 5589 5576 5565 5555 5545 5537 5529 5522 5517 5512 5509 5508 5508 5509 5512 5517 5524 5531 5541 5552 5565 5580 5595 5609 5623 5637 5651 5663 5676 5688
5759 5746 5733 5718 5703 5687 5671 5655 5639 5624 5609 5595 5581 5569 5557 5546 5535 5526 5517 5509 5502 5496 5490 5487 5485 5484 5485 5487 5492 5498 5505 5513 5523 5536 5549 5564 5580 5597 5613 5627 5642 5655 5668
5746 5733 5719 5704 5688 5672 5656 5640 5623 5607 5591 5577 5564 5551 5539 5528 5518 5508 5499 5490 5483 5477 5472 5468 5465 5463 5462 5465 5469 5476 5481 5487 5497 5509 5521 5535 5551 5569 5587 5603 5619 5634 5648
5734 5720 5705 5690 5674 5658 5643 5626 5610 5594 5578 5563 5549 5535 5523 5512 5502 5493 5484 5475 5468 5462 5456 5452 5449 5447 5444 5444 5448 5455 5460 5465 5474 5485 5495 5509 5525 5542 5560 5578 5595 5611 5627
5724 5709 5693 5677 5661 5644 5627 5611 5594 5579 5564 5549 5535 5521 5509 5498 5488 5479 5470 5462 5454 5448 5442 5437 5433 5432 5429 5427 5429 5434 5441 5447 5454 5463 5472 5485 5501 5517 5534 5553 5571 5588 5605
5712 5697 5681 5665 5648 5630 5613 5597 5581 5567 5552 5538 5525 5512 5498 5486 5475 5465 5456 5448 5440 5434 5429 5424 5420 5417 5416 5413 5412 5415 5421 5428 5435 5444 5453 5465 5479 5494 5510 5528 5546 5564 5582
5702 5685 5669 5652 5634 5617 5600 5584 5569 5555 5541 5527 5513 5500 5487 5475 5463 5452 5443 5434 5427 5420 5414 5410 5406 5403 5402 5401 5400 5400 5403 5409 5417 5426 5436 5447 5460 5474 5488 5504 5522 5540 5559
5691 5675 5657 5639 5622 5604 5587 5572 5558 5543 5529 5516 5502 5490 5477 5464 5452 5440 5430 5420 5412 5404 5398 5394 5391 5388 5387 5387 5387 5387 5389 5393 5400 5409 5420 5430 5443 5455 5468 5482 5499 5518 5537
5681 5664 5646 5628 5611 5594 5578 5563 5548 5534 5520 5506 5493 5481 5468 5455 5442 5428 5417 5405 5395 5387 5381 5376 5373 5372 5371 5372 5373 5374 5376 5380 5384 5393 5404 5414 5426 5438 5451 5464 5479 5497 5516
Wind_Speed
13 14 15 17 18 20 21 23 24 25 25 26 27 28 29 30 32 34 35 36 38 39 39 40 39 39 39 38 37 36 35 34 32 30 28 26 24 23 22 21 21 22 23
12 14 15 17 18 19 21 22 23 24 25 26 26 27 28 29 30 31 33 34 36 38 40 41 42 43 43 42 42 40 39 37 36 35 33 30 28 27 25 24 23 23 24
14 15 17 18 19 21 22 23 24 25 26 28 29 29 30 31 31 32 33 34 35 37 38 40 42 44 45 46 46 45 44 42 41 39 37 35 33 31 29 27 26 25 25
17 18 20 21 23 24 26 28 29 30 32 33 34 35 35 36 36 36 37 37 37 38 39 40 41 43 45 47 48 49 49 47 45 44 42 40 37 35 33 31 30 28 27
20 22 24 26 28 29 31 33 34 36 37 38 39 40 41 42 43 43 43 43 43 43 42 42 42 43 44 46 48 50 51 52 50 48 46 44 42 39 37 36 34 32 30
23 25 28 30 32 34 35 37 39 40 42 43 45 46 47 48 49 49 49 50 50 49 49 48 47 47 46 47 48 49 51 53 54 53 51 49 46 44 42 40 39 37 34
27 29 32 34 36 38 40 42 44 45 47 48 50 51 52 53 54 55 55 56 56 55 55 55 54 53 52 51 50 50 51 52 54 55 55 54 51 49 46 45 43 42 39
31 33 36 38 41 43 45 47 48 50 52 54 55 57 58 59 60 61 61 61 61 61 61 60 60 59 58 57 56 55 54 54 54 55 57 57 56 54 51 49 48 46 44
35 37 40 43 45 47 49 51 53 55 57 59 60 62 63 65 66 67 68 68 68 68 67 66 65 65 64 63 62 61 59 57 56 56 57 58 59 58 56 54 52 51 48
39 41 44 46 49 51 54 56 58 60 62 64 66 68 69 70 72 73 74 74 75 75 74 74 73 71 69 68 67 66 65 63 61 60 59 59 60 60 59 58 57 55 53
42 45 48 50 53 56 58 61 63 66 68 70 72 73 75 76 77 78 79 80 81 81 81 80 79 78 76 74 73 71 70 68 67 65 63 62 62 61 61 61 60 59 57
45 48 51 54 57 59 62 64 67 69 72 74 76 78 79 81 82 83 83 84 85 86 86 86 86 85 83 81 79 77 75 73 72 70 68 66 65 64 63 63 63 62 61
48 51 54 57 60 62 65 68 70 73 76 78 80 82 84 85 86 87 88 89 89 90 90 91 91 90 89 87 85 83 80 78 76 75 73 71 69 68 66 65 65 64 64
51 54 57 60 63 66 68 71 74 77 79 82 84 86 87 88 89 90 91 92 92 92 93 94 94 94 94 94 92 89 86 84 81 79 78 76 74 72 70 68 67 66 66
53 56 59 63 66 69 72 75 78 81 83 85 87 88 89 90 91 91 91 90 89 89 89 90 91 92 94 95 95 95 93 90 87 84 82 81 79 77 75 73 70 69 68
55 59 62 66 69 73 77 80 82 85 87 88 89 90 90 89 88 86 83 81 79 79 79 80 81 83 85 88 91 93 94 94 92 90 87 85 84 82 80 77 74 72 70
58 62 66 70 74 78 81 84 86 88 89 90 89 87 85 83 80 77 75 73 72 72 71 72 72 74 76 79 82 86 89 91 92 92 91 90 88 87 85 82 79 76 74
61 66 70 74 78 81 84 87 88 89 88 87 84 82 79 76 74 72 70 68 67 66 66 66 66 67 68 71 74 77 81 85 87 90 92 93 92 91 89 87 84 81 78
65 70 74 77 81 84 86 87 88 87 85 82 79 76 74 71 69 68 66 64 62 61 60 60 60 61 63 65 67 70 73 78 82 85 90 93 94 94 93 91 88 85 82
69 73 77 80 83 85 86 86 85 83 80 77 75 73 70 68 65 63 61 58 56 54 53 52 53 54 56 59 62 64 68 72 76 80 85 91 95 96 97 95 92 89 86
72 75 79 81 83 85 85 84 82 79 76 74 72 69 67 64 62 59 57 54 52 50 49 48 47 47 49 52 55 59 63 67 72 75 80 87 92 97 99 98 96 94 90
73 77 80 82 84 85 84 83 80 76 74 71 69 67 64 62 59 56 54 52 50 47 46 45 45 43 44 46 49 52 57 62 67 71 76 81 87 93 98 100 99 98 94
74 77 80 82 84 84 82 80 76 73 70 68 65 63 61 59 57 55 53 51 49 47 45 43 42 41 40 42 44 46 51 56 62 67 72 76 81 87 94 99 101 100 97
75 78 81 82 83 82 80 77 74 71 69 66 64 61 59 58 57 55 53 51 49 47 46 44 42 41 40 39 40 42 45 50 57 62 68 72 76 81 87 94 100 101 100
75 78 81 82 82 80 77 74 72 70 67 65 62 60 58 57 56 55 54 53 51 49 48 46 45 43 41 39 38 39 41 45 51 57 62 68 72 76 80 87 95 99 100
76 78 80 81 80 77 74 72 70 68 66 63 60 58 57 56 56 56 55 54 52 51 50 49 48 46 43 41 39 38 39 41 46 52 58 63 68 72 75 80 88 95 99
Wind_Direction
300 299 299 298 298 298 297 297 297 296 295 293 291 288 285 282 278 275 273 270 268 265 264 262 261 260 259 258 257 256 255 255 255 255 255 253 250 247 244 239 235 232 231
316 314 313 311 310 309 308 306 305 303 301 299 297 294 291 288 284 281 278 275 271 268 265 263 261 260 258 257 256 255 254 254 253 253 253 252 250 248 245 242 237 233 231
332 328 325 321 318 315 312 309 306 304 301 299 297 295 293 290 288 285 282 279 275 272 269 265 263 261 259 257 256 254 253 252 252 251 251 250 250 248 246 243 239 236 233
334 328 323 319 315 311 308 305 303 301 298 297 295 293 291 290 288 286 284 281 278 276 273 269 266 263 260 258 256 254 253 251 250 250 249 249 248 247 246 244 241 238 235
325 320 316 313 310 307 305 303 301 299 298 296 294 293 291 289 287 285 283 282 280 278 275 273 270 267 263 260 257 255 253 252 250 249 248 247 246 246 245 244 242 239 236
316 313 310 308 306 304 303 301 300 298 297 296 294 293 291 289 287 285 283 281 279 277 276 274 272 269 266 263 260 256 254 252 251 249 247 246 245 244 243 243 242 240 238
312 310 309 307 306 305 303 302 301 300 299 297 295 294 292 290 288 286 284 281 279 277 275 274 272 270 267 265 262 259 256 253 251 250 248 246 244 242 241 241 241 240 238
311 310 309 308 307 306 305 304 302 301 300 298 296 295 293 291 289 287 285 283 280 278 276 273 271 269 267 265 263 260 258 255 252 250 248 247 244 242 240 239 239 240 239
311 311 310 309 308 307 306 304 303 301 300 299 297 296 294 292 290 288 286 284 282 279 277 274 271 269 267 265 262 260 258 256 253 251 249 247 245 242 240 238 238 238 238
312 311 311 310 309 308 307 306 305 303 302 300 298 296 294 292 290 288 286 284 282 280 277 275 272 269 267 264 262 260 257 255 253 251 249 247 245 243 240 238 237 236 237
313 312 312 311 311 309 308 307 305 304 302 300 299 297 295 293 290 288 286 284 282 279 277 275 272 270 267 264 261 259 256 254 252 250 248 246 245 243 241 238 236 235 235
314 314 313 312 310 309 307 306 304 303 301 300 298 296 294 292 290 288 286 283 281 279 276 274 271 269 266 264 261 258 255 253 250 248 246 245 244 242 240 239 237 235 234
315 314 313 311 309 308 307 305 303 302 301 299 297 296 294 292 290 288 286 284 281 279 276 273 270 267 265 262 260 258 255 252 249 247 245 243 242 241 239 238 236 235 234
315 313 311 310 309 307 306 305 304 303 301 300 299 297 295 294 292 290 288 285 282 279 277 274 271 268 265 262 259 256 254 251 248 245 243 241 239 239 238 237 235 234 233
313 312 310 310 309 309 308 307 306 305 305 304 302 300 299 297 295 293 290 288 285 282 278 275 271 268 265 262 259 256 253 250 247 244 241 239 237 236 235 235 234 233 232
313 313 313 313 313 312 312 311 310 310 309 308 306 305 303 301 299 296 293 290 287 283 279 275 271 267 264 260 257 255 252 249 246 242 239 237 235 233 233 232 232 231 231
316 316 317 317 317 316 316 315 314 313 312 311 309 308 306 304 302 299 296 293 289 285 281 276 272 267 262 258 255 252 250 247 244 241 238 235 233 231 230 230 229 229 229
319 320 320 320 320 319 319 318 317 316 314 313 312 311 309 307 305 302 299 296 292 288 283 278 273 268 263 258 253 250 247 244 241 238 235 233 230 229 228 227 227 227 227
323 323 323 323 322 321 321 320 319 318 317 316 315 314 312 310 308 306 303 299 295 291 287 281 276 270 264 259 253 249 245 242 238 235 232 230 228 227 226 225 224 224 224
326 326 325 325 324 323 322 322 321 320 320 319 318 317 315 313 312 310 307 304 300 295 290 285 280 275 268 260 254 249 245 241 237 234 230 227 225 224 223 223 223 222 222
328 327 327 326 325 324 323 323 322 322 323 322 321 320 318 317 315 313 310 307 303 298 293 288 284 279 273 265 256 248 244 241 237 233 230 227 224 222 221 221 221 220 220
329 329 328 326 325 325 325 325 325 326 325 325 324 323 321 319 316 314 311 308 304 300 295 291 286 282 277 270 261 251 242 240 236 233 230 227 224 221 220 219 219 219 218
330 330 328 327 327 327 327 328 328 328 327 327 326 324 322 320 318 316 313 310 306 302 297 293 288 283 279 274 267 256 245 238 236 233 230 228 225 222 220 218 217 217 217
331 331 329 329 329 329 330 330 330 330 330 329 328 326 325 322 320 318 315 311 307 302 297 292 288 284 279 274 269 262 251 240 234 231 230 227 225 223 221 219 217 216 216
333 332 331 330 331 332 332 332 332 332 332 332 331 329 327 325 322 319 315 311 306 301 296 290 286 282 278 274 268 262 256 246 235 230 228 226 224 222 221 219 217 216 215
334 333 332 332 333 334 334 334 334 335 334 334 333 332 330 327 324 321 317 312 307 301 295 289 283 278 275 271 266 260 255 249 239 230 225 224 223 221 221 220 218 216 214